#timestamp,LO_Frequency,Hit,StdDev 
1646110815.1,286047000.5,N
1646110835.8,286046998.6,N
1646110855.7,286047000.8,N
1646110875.5,286047000.8,N
1646110895.4,286047002.4,N
1646110915.2,286047000.5,N
1646110935.0,286047000.2,N
1646110935.9,286047000.2,N
1646110955.8,286047000.5,N
1646110975.6,286046999.8,N
1646110995.5,286047000.2,N
1646111015.3,286047000.2,N
1646111035.1,286046998.1,N
1646111055.9,286046998.4,N
1646111075.7,286046998.7,N
1646111095.5,286046999.4,N
1646111115.4,286046999.0,N
1646111135.2,286046998.9,N
1646111155.1,286046997.1,N
1646111156.0,286046997.1,N
1646111175.8,286046997.6,N
1646111195.6,286046997.1,N
1646111215.5,286046997.5,N
1646111235.3,286046997.8,N
1646111255.1,286046996.6,N
1646111275.9,286046997.8,N
1646111295.7,286046997.7,N
1646111315.6,286046996.7,N
1646111335.4,286046997.7,N
1646111355.2,286046997.2,N
1646111375.1,286046997.2,N
1646111376.0,286046997.2,N
1646111395.8,286046997.8,N
1646111415.6,286046997.7,N
1646111435.5,286046996.5,N
1646111455.3,286046999.6,N
1646111475.2,286046999.6,N
1646111495.9,286046999.2,N
1646111515.7,286046998.9,N
1646111535.6,286046997.1,N
1646111555.4,286046997.2,N
1646111575.3,286046996.8,Y
1646111595.1,286046999.1,P
1646111596.0,286046999.1,N
1646111615.8,286046997.2,P
1646111635.7,286046997.0,Y
1646111655.5,286047001.2,P
1646111675.4,286047000.7,N
1646111695.2,286047000.4,N
1646111715.0,286047000.6,N
1646111715.9,286047000.6,N
1646111735.8,286047000.4,N
1646111755.6,286046999.0,N
1646111775.4,286046998.9,N
1646111795.3,286046998.3,N
1646111815.1,286046998.5,N
1646111835.9,286046998.7,N
1646111855.7,286046999.3,N
1646111875.5,286046996.7,Y
1646111895.4,286046999.1,P
1646111915.2,286046998.2,P
1646111935.0,286047000.5,N
1646111936.0,286047000.5,N
1646111955.8,286047000.9,N
1646111975.6,286046998.8,N
1646111995.5,286046996.7,Y
1646112015.3,286046996.8,P
1646112035.1,286046999.4,N
1646112055.9,286046999.4,N
1646112075.7,286046999.6,N
1646112095.6,286046996.9,N
1646112115.4,286046996.5,N
1646112135.2,286046999.3,N
1646112155.1,286046998.4,N
1646112156.0,286046998.4,N
1646112175.8,286046998.9,N
1646112195.7,286047001.1,N
1646112215.5,286046998.7,N
1646112235.3,286047001.2,N
1646112255.2,286047001.0,N
1646112275.0,286047001.1,N
1646112275.9,286047001.1,N
1646112295.7,286046998.2,N
1646112315.6,286046998.8,N
1646112335.4,286046999.5,N
1646112355.3,286046999.4,N
1646112375.1,286046998.5,N
1646112376.0,286046998.5,N
1646112395.8,286046996.6,N
1646112415.7,286046999.4,N
1646112435.5,286046998.8,N
1646112455.3,286046999.4,N
1646112475.2,286046997.4,N
1646112495.0,286046997.9,N
1646112495.9,286046997.9,N
1646112515.8,286046996.5,N
1646112535.6,286046997.5,N
1646112555.4,286046996.9,N
1646112575.3,286046997.2,N
1646112595.1,286046997.7,N
1646112615.9,286046997.9,N
1646112635.7,286046997.3,N
1646112655.4,286046997.4,N
1646112675.2,286046999.6,N
1646112695.1,286046996.6,N
1646112696.0,286046996.6,N
1646112715.8,286046997.0,N
1646112735.6,286046997.5,N
1646112755.5,286046996.2,N
1646112775.3,286046995.1,Y
1646112795.2,286046997.8,P
1646112815.9,286046997.3,P
1646112835.7,286046997.3,P
1646112855.6,286046995.6,Y
1646112875.4,286046999.2,P
1646112895.2,286046999.1,N
1646112915.1,286046998.4,N
1646112916.0,286046998.4,N
1646112935.8,286046998.6,N
1646112955.7,286047000.5,N
1646112975.5,286046998.5,N
1646112995.3,286046999.7,N
1646113015.2,286047000.9,N
1646113035.0,286047000.4,N
1646113035.9,286047000.4,N
1646113055.8,286047002.4,N
1646113075.6,286046999.8,N
1646113095.4,286047002.4,N
1646113115.3,286047002.1,N
1646113135.1,286047004.3,N
1646113155.8,286047003.9,N
1646113175.7,286047001.4,N
1646113195.5,286047001.5,N
1646113215.4,286047001.3,N
1646113235.2,286047001.4,N
1646113255.0,286047004.1,N
1646113255.9,286047004.1,N
1646113275.8,286047003.4,N
1646113295.6,286047003.0,N
1646113315.4,286047005.7,N
1646113335.3,286047005.1,N
1646113355.1,286047004.8,N
1646113405.9,286047005.6,E
1646113415.8,286047004.4,N
1646113435.7,286046998.5,P
1646113455.5,286046998.6,N
1646113475.3,286046996.7,N
1646113495.2,286046999.0,N
1646113515.9,286046999.5,N
1646113535.7,286046997.3,N
1646113555.6,286046997.4,N
1646113575.4,286046997.1,N
1646113595.3,286046999.1,N
1646113615.1,286046999.3,N
1646113616.0,286046999.3,N
1646113635.8,286046999.2,N
1646113655.7,286046997.4,N
1646113675.5,286046998.7,N
1646113695.3,286046996.5,N
1646113715.2,286046998.8,N
1646113735.0,286046996.6,N
1646113735.9,286046996.6,N
1646113755.8,286046999.3,N
1646113775.6,286046999.2,N
1646113795.4,286046998.9,N
1646113815.3,286046999.4,N
1646113835.1,286046999.0,N
1646113855.9,286046998.5,N
1646113875.7,286046998.8,N
1646113895.5,286046998.8,N
1646113915.4,286046996.5,N
1646113935.2,286046999.6,N
1646113955.0,286047000.7,N
1646113955.9,286047000.7,N
1646113975.8,286047000.5,N
1646113995.6,286047000.9,N
1646114015.5,286046999.9,N
1646114035.3,286047000.3,N
1646114055.1,286047000.3,N
1646114075.9,286047000.3,N
1646114095.7,286047002.2,N
1646114115.5,286047002.7,N
1646114135.4,286047002.4,N
1646114155.2,286047000.1,N
1646114175.1,286047002.7,N
1646114176.0,286047002.7,N
1646114195.8,286047000.8,N
1646114215.6,286046999.9,N
1646114235.5,286047000.4,N
1646114255.3,286047001.1,N
1646114275.1,286046999.9,N
1646114295.9,286047001.0,N
1646114315.7,286046998.1,N
1646114335.6,286047001.2,N
1646114355.4,286046998.2,N
1646114375.2,286046998.5,N
1646114395.1,286046998.1,N
1646114396.0,286046998.1,N
